Weather History for KSPI - November, 2011

Change the Weather History Date:

Friday, November 4, 2011

  Actual Average Record
Temperature  
Mean Temperature 45 °F 48 °F  
Max Temperature 56 °F 58 °F 82 °F (1978)
Min Temperature 34 °F 39 °F 11 °F (1991)
Degree Days  
Heating Degree Days 20 17  
Month to date heating degree days 42 64  
Since 1 July heating degree days 448 474  
Cooling Degree Days 0 0  
Month to date cooling degree days 0 0  
Year to date cooling degree days 1447 1121  
Moisture  
Dew Point 36 °F    
Average Humidity 72    
Maximum Humidity 96    
Minimum Humidity 47    
Precipitation  
Precipitation 0.00 in 0.10 in 2.39 in (1935)
Month to date precipitation 1.34 0.41  
Year to date precipitation 26.02 32.11  
Snow  
Snow 0.00 in 0.00 in T in (1991)
Month to date snowfall 0.0 0.0  
Since 1 July snowfall 0.0 T  
Since 1 September snowfall 0.0 T  
Snow Depth 0.00 in    
Sea Level Pressure  
Sea Level Pressure 30.25 in    
Wind  
Wind Speed 8 mph (NE)    
Max Wind Speed 15 mph    
Max Gust Speed 20 mph    
Visibility 10 miles    
Events      
T = Trace of Precipitation, MM = Missing Value Source: NWS Daily Summary

Daily Weather History Graph

Daily Weather History Graph

Search for Another Location

Airport or City:

Trip Planner

Search our weather history database for the weather conditions in past years. The results will help you decide how hot, cold, wet, or windy it might be!

Date:

Astronomy

Nov. 04, 2011 Rise Set
Actual Time 7:30 AM CDT 5:53 PM CDT
Civil Twilight 7:02 AM CDT 6:21 PM CDT
Nautical Twilight 6:30 AM CDT 6:53 PM CDT
Astronomical Twilight 5:58 AM CDT 7:25 PM CDT
Moon 2:44 PM CDT (11/4) 1:43 AM CDT (11/4)
Length of Visible Light 11h 19m
Length of Day
10h 22m
Waxing Gibbous, 69% of the Moon is Illuminated
Nov 4
Waxing Gibbous
Nov 10
Full
Nov 18
Last Quarter
Nov 25
New
Dec 2
First Quarter

Hourly Weather History & Observations

Time (CDT) Temp. Windchill Dew Point Humidity Pressure Visibility Wind Dir Wind Speed Gust Speed Precip Events Conditions
12:52 AM 44.1 °F 37.7 °F 39.0 °F 82% 30.18 in 10.0 mi North 12.7 mph - N/A   Overcast
1:52 AM 43.0 °F 36.8 °F 37.9 °F 82% 30.18 in 10.0 mi North 11.5 mph - N/A   Overcast
2:10 AM 42.8 °F 36.2 °F 37.4 °F 81% 30.18 in 10.0 mi North 12.7 mph - N/A   Scattered Clouds
2:52 AM 41.0 °F 33.9 °F 37.0 °F 86% 30.19 in 10.0 mi North 12.7 mph - N/A   Clear
3:52 AM 39.9 °F 33.9 °F 36.0 °F 86% 30.20 in 10.0 mi North 9.2 mph - N/A   Clear
4:52 AM 37.9 °F 32.1 °F 35.1 °F 89% 30.22 in 10.0 mi North 8.1 mph - N/A   Clear
5:52 AM 36.0 °F 30.3 °F 34.0 °F 93% 30.25 in 10.0 mi North 6.9 mph - N/A   Clear
6:52 AM 35.1 °F 31.0 °F 33.1 °F 92% 30.25 in 10.0 mi North 4.6 mph - N/A   Clear
7:52 AM 34.0 °F 28.8 °F 32.0 °F 92% 30.27 in 8.0 mi NNE 5.8 mph - N/A   Clear
8:52 AM 39.0 °F 34.0 °F 36.0 °F 89% 30.29 in 10.0 mi NNE 6.9 mph - N/A   Clear
9:52 AM 45.0 °F 40.6 °F 37.0 °F 74% 30.31 in 10.0 mi NE 8.1 mph - N/A   Clear
10:52 AM 46.9 °F - 39.0 °F 74% 30.31 in 10.0 mi NE 9.2 mph - N/A   Clear
11:52 AM 48.9 °F - 39.9 °F 71% 30.31 in 10.0 mi NE 10.4 mph - N/A   Clear
12:52 PM 53.1 °F - 41.0 °F 64% 30.29 in 10.0 mi NE 8.1 mph - N/A   Clear
1:52 PM 55.0 °F - 37.0 °F 51% 30.27 in 10.0 mi ENE 12.7 mph - N/A   Clear
2:52 PM 55.0 °F - 36.0 °F 49% 30.26 in 10.0 mi East 5.8 mph - N/A   Clear
3:52 PM 55.9 °F - 35.1 °F 45% 30.26 in 10.0 mi ESE 10.4 mph - N/A   Clear
4:52 PM 55.0 °F - 35.1 °F 47% 30.25 in 10.0 mi ENE 8.1 mph - N/A   Clear
5:52 PM 48.0 °F - 36.0 °F 63% 30.25 in 10.0 mi ENE 8.1 mph - N/A   Clear
6:52 PM 44.1 °F 40.1 °F 35.1 °F 71% 30.26 in 10.0 mi East 6.9 mph - N/A   Clear
7:52 PM 44.1 °F 41.5 °F 35.1 °F 71% 30.26 in 10.0 mi East 4.6 mph - N/A   Clear
8:52 PM 42.1 °F 39.2 °F 36.0 °F 79% 30.25 in 10.0 mi East 4.6 mph - N/A   Clear
9:52 PM 41.0 °F 38.0 °F 35.1 °F 79% 30.25 in 10.0 mi East 4.6 mph - N/A   Clear
10:52 PM 42.1 °F 37.1 °F 35.1 °F 76% 30.25 in 10.0 mi ESE 8.1 mph - N/A   Clear
11:52 PM 41.0 °F 35.8 °F 34.0 °F 76% 30.24 in 10.0 mi ESE 8.1 mph - N/A   Clear